La Junta, CO

1:19 PM MDT on April 27, 2017 (GMT -0600)
La Junta Municipal

Weather History for KLHX - April, 2014

Change the Weather History Date:

Sunday, April 6, 2014

  Actual Average Record
Temperature  
Mean Temperature 50 °F 50 °F  
Max Temperature 60 °F 65 °F 89 °F (1972)
Min Temperature 39 °F 34 °F 20 °F (1983)
Degree Days  
Heating Degree Days 15 15  
Month to date heating degree days 109 96  
Since 1 July heating degree days 4832 4844  
Cooling Degree Days 0 0  
Month to date cooling degree days 0 0  
Year to date cooling degree days 0 1  
Moisture  
Dew Point 36 °F    
Average Humidity 59    
Maximum Humidity 85    
Minimum Humidity 33    
Precipitation  
Precipitation 0.02 in 0.03 in 0.29 in (1993)
Month to date precipitation 0.36 0.19  
Year to date precipitation 1.10  
Sea Level Pressure  
Sea Level Pressure 29.82 in    
Wind  
Wind Speed 10 mph (North)    
Max Wind Speed 31 mph    
Max Gust Speed 36 mph    
Visibility 10 miles    
Events Rain    
T = Trace of Precipitation, MM = Missing Value Source: NWS Daily Summary

Daily Weather History Graph

Daily Weather History Graph

Search for Another Location

Airport or City:

Trip Planner

Search our weather history database for the weather conditions in past years. The results will help you decide how hot, cold, wet, or windy it might be!

Date:

Astronomy

Apr. 06, 2014 Rise Set
Actual Time 6:31 AM MDT 7:21 PM MDT
Civil Twilight 6:04 AM MDT 7:48 PM MDT
Nautical Twilight 5:33 AM MDT 8:20 PM MDT
Astronomical Twilight 5:00 AM MDT 8:53 PM MDT
Moon 11:37 AM MDT (4/6) 1:16 AM MDT (4/6)
Length of Visible Light 13h 43m
Length of Day
12h 50m
Waxing Crescent, 44% of the Moon is Illuminated
Apr 6
Waxing Crescent
Apr 7
First Quarter
Apr 15
Full
Apr 22
Last Quarter
Apr 29
New

Hourly Weather History & Observations

Time (MDT) Temp. Windchill Dew Point Humidity Pressure Visibility Wind Dir Wind Speed Gust Speed Precip Events Conditions
12:53 AM 43.0 °F 38.8 °F 34.0 °F 71% 29.85 in 10.0 mi East 6.9 mph - N/A   Overcast
1:53 AM 42.1 °F 37.1 °F 35.1 °F 76% 29.84 in 10.0 mi East 8.1 mph - N/A   Overcast
2:53 AM 41.0 °F 36.4 °F 35.1 °F 79% 29.82 in 10.0 mi East 6.9 mph - N/A   Overcast
3:53 AM 41.0 °F - 35.1 °F 79% 29.83 in 10.0 mi Calm Calm - N/A   Overcast
4:53 AM 39.9 °F 37.8 °F 36.0 °F 86% 29.82 in 10.0 mi NE 3.5 mph - N/A   Overcast
5:53 AM 39.0 °F - 36.0 °F 89% 29.83 in 10.0 mi Calm Calm - N/A   Overcast
6:53 AM 39.0 °F - 36.0 °F 89% 29.83 in 10.0 mi Calm Calm - N/A   Overcast
7:53 AM 39.9 °F - 36.0 °F 86% 29.85 in 10.0 mi Calm Calm - N/A   Overcast
8:53 AM 43.0 °F 41.3 °F 37.0 °F 80% 29.83 in 10.0 mi WNW 3.5 mph - N/A   Overcast
9:53 AM 48.9 °F - 37.9 °F 66% 29.82 in 10.0 mi WNW 11.5 mph - N/A   Overcast
10:53 AM 53.1 °F - 36.0 °F 52% 29.81 in 10.0 mi NNW 6.9 mph 23.0 mph N/A   Overcast
11:53 AM 59.0 °F - 30.9 °F 35% 29.77 in 10.0 mi North 13.8 mph - N/A   Partly Cloudy
12:53 PM 57.9 °F - 30.9 °F 36% 29.75 in 10.0 mi NNE 24.2 mph 32.2 mph N/A   Mostly Cloudy
1:08 PM 53.1 °F - 35.1 °F 50% 29.83 in 10.0 mi East 12.7 mph - 0.00 in Rain Light Rain
1:53 PM 59.0 °F - 32.0 °F 36% 29.73 in 10.0 mi ENE 13.8 mph - 0.00 in   Clear
2:53 PM 55.0 °F - 33.1 °F 43% 29.74 in 10.0 mi West 12.7 mph - N/A   Overcast
3:53 PM 53.1 °F - 37.0 °F 55% 29.76 in 10.0 mi WNW 19.6 mph - 0.02 in   Overcast
4:53 PM 52.0 °F - 36.0 °F 54% 29.77 in 10.0 mi SSE 8.1 mph - 0.00 in   Scattered Clouds
5:53 PM 48.9 °F - 37.0 °F 64% 29.82 in 10.0 mi NNW 20.7 mph 36.8 mph N/A   Overcast
6:01 PM 50.0 °F - 37.0 °F 61% 29.85 in 10.0 mi NNW 21.9 mph - N/A   Overcast
6:53 PM 48.0 °F - 37.9 °F 68% 29.83 in 10.0 mi NNE 12.7 mph - 0.00 in   Overcast
7:53 PM 46.9 °F - 39.0 °F 74% 29.84 in 10.0 mi ESE 9.2 mph - N/A   Overcast
8:53 PM 46.0 °F 41.9 °F 39.0 °F 76% 29.84 in 10.0 mi SSW 8.1 mph - N/A   Overcast
9:30 PM 46.0 °F 40.6 °F 37.9 °F 73% 29.91 in 10.0 mi West 11.5 mph - N/A   Overcast
9:53 PM 46.0 °F 41.0 °F 37.9 °F 73% 29.87 in 10.0 mi WNW 10.4 mph - N/A   Overcast
10:53 PM 46.0 °F 39.9 °F 37.0 °F 71% 29.86 in 10.0 mi West 13.8 mph - 0.00 in   Overcast
11:53 PM 44.1 °F 38.6 °F 36.0 °F 73% 29.85 in 10.0 mi West 10.4 mph - N/A   Partly Cloudy